This is the latest recevied weather packets stored in our database for station/object KB9MLJ. If no packets are shown the sender has not sent any weather packets the latest 10 day(s).
| Time | Temp. | Humidity | Pressure | Rain* | Wind** | Luminosity | Snow |
|---|---|---|---|---|---|---|---|
| 1777686270 | 5° C | 79% | 1018.2 hPa | 0 mm | - | 0 W/m² | - |
| 1777685967 | 5° C | 79% | 1018.2 hPa | 0 mm | - | 0 W/m² | - |
| 1777685662 | 5.56° C | 78% | 1018.2 hPa | 0 mm | - | 0 W/m² | - |
| 1777685359 | 5.56° C | 78% | 1017.8 hPa | 0 mm | - | 0 W/m² | - |
| 1777685057 | 5.56° C | 78% | 1017.5 hPa | 0 mm | - | 0 W/m² | - |
| 1777684754 | 6.11° C | 78% | 1017.5 hPa | 0 mm | - | 0 W/m² | - |
| 1777684450 | 6.11° C | 78% | 1017.5 hPa | 0 mm | - | 0 W/m² | - |
| 1777684147 | 6.11° C | 79% | 1017.5 hPa | 0 mm | - | 0 W/m² | - |
| 1777683844 | 6.11° C | 78% | 1017.8 hPa | 0 mm | - | 0 W/m² | - |
| 1777683540 | 6.11° C | 78% | 1017.2 hPa | 0 mm | - | 0 W/m² | - |
| 1777683238 | 6.67° C | 78% | 1017.2 hPa | 0 mm | - | 0 W/m² | - |
| 1777682935 | 6.67° C | 77% | 1017.2 hPa | 0 mm | - | 2 W/m² | - |
| 1777682631 | 7.22° C | 76% | 1017.2 hPa | 0 mm | - | 4 W/m² | - |
| 1777682329 | 7.22° C | 75% | 1017.2 hPa | 0 mm | - | 6 W/m² | - |
| 1777682026 | 7.22° C | 74% | 1017.2 hPa | 0 mm | - | 11 W/m² | - |
| 1777681722 | 7.78° C | 73% | 1017.2 hPa | 0 mm | - | 15 W/m² | - |
| 1777681420 | 7.78° C | 73% | 1017.2 hPa | 0 mm | - | 16 W/m² | - |
| 1777681117 | 7.78° C | 72% | 1017.2 hPa | 0 mm | - | 16 W/m² | - |
| 1777680815 | 8.33° C | 70% | 1016.8 hPa | 0 mm | - | 20 W/m² | - |
| 1777680512 | 8.33° C | 69% | 1016.8 hPa | 0 mm | - | 25 W/m² | - |
| 1777680210 | 8.89° C | 68% | 1016.8 hPa | 0 mm | - | 31 W/m² | - |
| 1777679906 | 8.89° C | 67% | 1016.8 hPa | 0 mm | - | 37 W/m² | - |
| 1777679601 | 8.89° C | 66% | 1016.8 hPa | 0 mm | - | 42 W/m² | - |
| 1777679297 | 8.89° C | 67% | 1017.2 hPa | 0 mm | - | 50 W/m² | - |
| 1777678994 | 8.89° C | 67% | 1017.2 hPa | 0 mm | - | 83 W/m² | - |
* Rain latest hour (hover to see other rain measurements)
** Current wind speed in m/s (hover to see current wind gust speed)